Dades meteomassalio
Diari Summary for Maig 13, 2017 Units:  Metric    English   Both
« Previous Day
Next Day »
Diari Semanal Mensual Anual Personalitzat
  Maxima: Minima: Mijana:
Temperatura: -17.8 °C -12 °C -7.9 °C
Rosada: -17.8 °C -13.4 °C -12.1 °C
Humitat: Humidity % 39 % 63 %
Velocitat del vent: 0 km/h 0 km/h 8 km/h
Racha vent: 0 km/h - -
Vent:- - SSW
Pressio: 0 hPa 34256.2 hPa -
Pluja: 20.32 mm    
Historical Graphs
 
 
Tabular Data for Maig 13, 2017
Time Temperature Dew Point Pressure Wind Wind Speed Wind Gust Humidity Rainfall Rate (Hourly) solar Conditions
-17.8 °C -17.8 °C 0 hPa Calm     Humidity % 0 mm SolarRadiationWatts/m^2 W/m2 Conditions
00:03 -7.7 °C -12.6 °C 34256.2 hPa WNW 9 km/h 9 km/h 56 % 0 mm 0.0 W/m2 CLR
00:08 -7.8 °C -12.5 °C 34256.2 hPa NNW 6 km/h 6 km/h 58 % 0 mm 0.0 W/m2 CLR
00:13 -8 °C -12.6 °C 34256.2 hPa Calm     59 % 0 mm 0.0 W/m2 CLR
00:18 -8.2 °C -12.6 °C 34269.7 hPa Calm     60 % 0 mm 0.0 W/m2 CLR
00:23 -8.3 °C -12.5 °C 34256.2 hPa Calm     61 % 0 mm 0.0 W/m2 CLR
00:28 -8.4 °C -12.5 °C 34269.7 hPa Calm     62 % 0 mm 0.0 W/m2 CLR
00:30 -8.5 °C -12.4 °C 34269.7 hPa Calm     63 % 0 mm 0.0 W/m2 CLR
00:35 -8.7 °C -12.4 °C 34269.7 hPa Calm     64 % 0 mm 0.0 W/m2 CLR
00:40 -8.8 °C -12.4 °C 34269.7 hPa Calm     65 % 0 mm 0.0 W/m2 CLR
00:45 -8.8 °C -12.4 °C 34256.2 hPa WNW 10.3 km/h 10.3 km/h 65 % 0 mm 0.0 W/m2 CLR
00:50 -8.7 °C -12.4 °C 34269.7 hPa Calm     65 % 0 mm 0.0 W/m2 CLR
00:55 -8.8 °C -12.5 °C 34269.7 hPa Calm     65 % 0 mm 0.0 W/m2 CLR
01:00 -8.9 °C -12.4 °C 34269.7 hPa Calm     66 % 0 mm 0.0 W/m2 CLR
01:05 -9 °C -12.5 °C 34269.7 hPa Calm     66 % 0 mm 0.0 W/m2 CLR
01:10 -9.1 °C -12.4 °C 34269.7 hPa Calm     67 % 0 mm 0.0 W/m2 CLR
01:15 -9.2 °C -12.6 °C 34269.7 hPa Calm     67 % 0 mm 0.0 W/m2 CLR
01:20 -9.2 °C -12.5 °C 34269.7 hPa Calm     68 % 0 mm 0.0 W/m2 CLR
01:25 -9.3 °C -12.6 °C 34269.7 hPa Calm     68 % 0 mm 0.0 W/m2 CLR
01:30 -9.4 °C -12.6 °C 34269.7 hPa Calm     69 % 0 mm 0.0 W/m2 CLR
01:35 -9.6 °C -12.6 °C 34269.7 hPa Calm     70 % 0 mm 0.0 W/m2 CLR
01:40 -9.8 °C -12.6 °C 34269.7 hPa WNW 2.6 km/h 2.6 km/h 72 % 0 mm 0.0 W/m2 CLR
01:45 -9.9 °C -12.6 °C 34269.7 hPa Calm     73 % 0 mm 0.0 W/m2 CLR
01:50 -9.8 °C -12.5 °C 34269.7 hPa Calm     73 % 0 mm 0.0 W/m2 CLR
01:54 -9.8 °C -12.5 °C 34269.7 hPa Calm     73 % 0 mm 0.0 W/m2 CLR
01:59 -9.8 °C -12.4 °C 34269.7 hPa Calm     73 % 0 mm 0.0 W/m2 CLR
02:04 -9.9 °C -12.6 °C 34269.7 hPa Calm     73 % 0 mm 0.0 W/m2 CLR
02:09 -10.1 °C -12.7 °C 34269.7 hPa Calm     73 % 0 mm 0.0 W/m2 CLR
02:14 -10.1 °C -12.6 °C 34279.9 hPa Calm     74 % 0 mm 0.0 W/m2 CLR
02:19 -10.1 °C -12.7 °C 34269.7 hPa Calm     73 % 0 mm 0.0 W/m2 CLR
02:24 -10.1 °C -12.6 °C 34269.7 hPa Calm     74 % 0 mm 0.0 W/m2 CLR
02:29 -10.1 °C -12.7 °C 34269.7 hPa Calm     74 % 0 mm 0.0 W/m2 CLR
02:34 -10.2 °C -12.7 °C 34279.9 hPa Calm     74 % 0 mm 0.0 W/m2 CLR
02:39 -10.2 °C -12.7 °C 34279.9 hPa Calm     75 % 0 mm 0.0 W/m2 CLR
02:44 -10.2 °C -12.6 °C 34279.9 hPa Calm     75 % 0 mm 0.0 W/m2 CLR
02:49 -10.2 °C -12.7 °C 34279.9 hPa Calm     75 % 0 mm 0.0 W/m2 CLR
02:54 -10.2 °C -12.6 °C 34279.9 hPa Calm     76 % 0 mm 0.0 W/m2 CLR
02:59 -10.3 °C -12.6 °C 34279.9 hPa Calm     76 % 0 mm 0.0 W/m2 CLR
03:04 -10.4 °C -12.7 °C 34279.9 hPa Calm     76 % 0 mm 0.0 W/m2 CLR
03:09 -10.4 °C -12.6 °C 34279.9 hPa Calm     77 % 0 mm 0.0 W/m2 CLR
03:14 -10.6 °C -12.7 °C 34279.9 hPa Calm     78 % 0 mm 0.0 W/m2 CLR
03:19 -10.7 °C -12.7 °C 34279.9 hPa Calm     79 % 0 mm 0.0 W/m2 CLR
03:24 -10.8 °C -12.7 °C 34279.9 hPa Calm     80 % 0 mm 0.0 W/m2 CLR
03:29 -10.9 °C -12.7 °C 34279.9 hPa Calm     81 % 0 mm 0.0 W/m2 CLR
03:34 -10.8 °C -12.7 °C 34279.9 hPa Calm     80 % 0 mm 0.0 W/m2 CLR
03:39 -10.8 °C -12.7 °C 34279.9 hPa Calm     80 % 0 mm 0.0 W/m2 CLR
03:44 -10.9 °C -12.7 °C 34279.9 hPa Calm     80 % 0 mm 0.0 W/m2 CLR
03:49 -10.8 °C -12.8 °C 34279.9 hPa Calm     79 % 0 mm 0.0 W/m2 CLR
03:54 -10.8 °C -12.8 °C 34279.9 hPa Calm     79 % 0 mm 0.0 W/m2 CLR
03:59 -10.9 °C -12.9 °C 34279.9 hPa Calm     79 % 0 mm 0.0 W/m2 CLR
04:04 -10.9 °C -12.8 °C 34279.9 hPa Calm     80 % 0 mm 0.0 W/m2 CLR
04:09 -11 °C -12.9 °C 34293.4 hPa Calm     80 % 0 mm 0.0 W/m2 CLR
04:14 -11.1 °C -12.9 °C 34279.9 hPa Calm     80 % 0 mm 0.0 W/m2 CLR
04:19 -11.2 °C -13 °C 34293.4 hPa Calm     80 % 0 mm 0.0 W/m2 CLR
04:24 -11.2 °C -13.1 °C 34293.4 hPa Calm     80 % 0 mm 0.0 W/m2 CLR
04:29 -11.3 °C -13.1 °C 34293.4 hPa Calm     81 % 0 mm 0.0 W/m2 CLR
04:30 -11.3 °C -13.1 °C 34293.4 hPa Calm     81 % 0 mm 0.0 W/m2 CLR
04:35 -11.4 °C -13.1 °C 34293.4 hPa Calm     82 % 0 mm 0.0 W/m2 CLR
04:40 -11.5 °C -13.1 °C 34293.4 hPa Calm     82 % 0 mm 0.0 W/m2 CLR
04:45 -11.4 °C -13.1 °C 34293.4 hPa Calm     82 % 0 mm 0.0 W/m2 CLR
04:50 -11.4 °C -13 °C 34303.6 hPa Calm     82 % 0 mm 0.0 W/m2 CLR
04:55 -11.4 °C -13 °C 34303.6 hPa Calm     82 % 0 mm 0.0 W/m2 CLR
05:00 -11.4 °C -13 °C 34303.6 hPa Calm     82 % 0 mm 0.0 W/m2 CLR
05:05 -11.4 °C -13.2 °C 34303.6 hPa Calm     81 % 0 mm 0.0 W/m2 CLR
05:10 -11.5 °C -13.1 °C 34303.6 hPa Calm     82 % 0 mm 0.0 W/m2 CLR
05:15 -11.5 °C -13.2 °C 34303.6 hPa Calm     82 % 0 mm 0.0 W/m2 CLR
05:20 -11.5 °C -13.3 °C 34303.6 hPa Calm     81 % 0 mm 0.0 W/m2 CLR
05:25 -11.6 °C -13.3 °C 34303.6 hPa Calm     81 % 0 mm 0.0 W/m2 CLR
05:30 -11.7 °C -13.3 °C 34303.6 hPa Calm     82 % 0 mm 0.0 W/m2 CLR
05:35 -11.7 °C -13.3 °C 34313.7 hPa Calm     82 % 0 mm 0.0 W/m2 CLR
05:40 -11.7 °C -13.2 °C 34313.7 hPa Calm     83 % 0 mm 0.0 W/m2 CLR
05:45 -11.7 °C -13.2 °C 34313.7 hPa Calm     83 % 0 mm 0.0 W/m2 CLR
05:50 -11.6 °C -13.2 °C 34313.7 hPa Calm     83 % 0 mm 0.0 W/m2 CLR
05:55 -11.5 °C -13.1 °C 34313.7 hPa Calm     83 % 0 mm 0.0 W/m2 CLR
06:00 -11.4 °C -13.1 °C 34313.7 hPa Calm     82 % 0 mm 0.0 W/m2 CLR
06:05 -11.4 °C -13.2 °C 34313.7 hPa Calm     81 % 0 mm 0.0 W/m2 CLR
06:10 -11.4 °C -13.1 °C 34313.7 hPa Calm     82 % 0 mm 0.0 W/m2 CLR
06:15 -11.4 °C -13.2 °C 34313.7 hPa Calm     81 % 0 mm 0.0 W/m2 CLR
06:20 -11.6 °C -13.3 °C 34313.7 hPa Calm     81 % 0 mm 0.0 W/m2 CLR
06:25 -11.7 °C -13.3 °C 34313.7 hPa Calm     82 % 0 mm 0.0 W/m2 CLR
06:30 -11.8 °C -13.3 °C 34313.7 hPa Calm     83 % 0 mm 0.0 W/m2 CLR
06:35 -11.8 °C -13.3 °C 34313.7 hPa Calm     83 % 0 mm 0.0 W/m2 OVC
06:40 -11.8 °C -13.3 °C 34313.7 hPa Calm     83 % 0 mm 0.0 W/m2 OVC
06:45 -11.8 °C -13.3 °C 34313.7 hPa Calm     83 % 0 mm 5.0 W/m2 OVC
06:50 -11.8 °C -13.4 °C 34327.3 hPa Calm     83 % 0 mm 7.0 W/m2 BKN
06:55 -11.9 °C -13.4 °C 34327.3 hPa Calm     84 % 0 mm 9.0 W/m2 BKN
07:00 -11.9 °C -13.4 °C 34327.3 hPa Calm     84 % 0 mm 12.0 W/m2 BKN
07:05 -12 °C -13.4 °C 34327.3 hPa Calm     84 % 0 mm 14.0 W/m2 BKN
07:10 -12 °C -13.3 °C 34327.3 hPa Calm     85 % 0 mm 16.0 W/m2 BKN
07:15 -11.9 °C -13.3 °C 34327.3 hPa Calm     85 % 0 mm 19.0 W/m2 BKN
07:20 -11.8 °C -13.2 °C 34327.3 hPa Calm     85 % 0 mm 26.0 W/m2 BKN
07:25 -11.7 °C -13.2 °C 34337.4 hPa Calm     84 % 0 mm 28.0 W/m2 BKN
07:30 -11.7 °C -13.2 °C 34337.4 hPa SE 6 km/h 6 km/h 84 % 0 mm 47.0 W/m2 SCT
07:35 -11.6 °C -13.2 °C 34337.4 hPa Calm     83 % 0 mm 62.0 W/m2 SCT
07:40 -11.5 °C -13 °C 34337.4 hPa Calm     83 % 0 mm 77.0 W/m2 FEW
07:45 -11.3 °C -12.9 °C 34337.4 hPa Calm     83 % 0 mm 91.0 W/m2 FEW
07:50 -11.1 °C -12.8 °C 34337.4 hPa Calm     82 % 0 mm 107.0 W/m2 CLR
07:55 -10.8 °C -12.6 °C 34347.6 hPa Calm     81 % 0 mm 123.0 W/m2 CLR
08:00 -10.6 °C -12.4 °C 34347.6 hPa Calm     80 % 0 mm 142.0 W/m2 CLR
08:05 -10.2 °C -12.3 °C 34347.6 hPa Calm     78 % 0 mm 160.0 W/m2 CLR
08:10 -10 °C -12.3 °C 34347.6 hPa Calm     76 % 0 mm 178.0 W/m2 CLR
08:15 -9.8 °C -12.3 °C 34347.6 hPa Calm     75 % 0 mm 195.0 W/m2 CLR
08:20 -9.6 °C -12.2 °C 34361.1 hPa Calm     74 % 0 mm 216.0 W/m2 CLR
08:25 -9.4 °C -12.1 °C 34361.1 hPa Calm     73 % 0 mm 232.0 W/m2 CLR
08:30 -9.2 °C -12 °C 34347.6 hPa Calm     72 % 0 mm 253.0 W/m2 CLR
08:35 -9 °C -12 °C 34361.1 hPa Calm     70 % 0 mm 258.0 W/m2 CLR
08:40 -8.8 °C -11.8 °C 34361.1 hPa Calm     70 % 0 mm 279.0 W/m2 CLR
08:45 -8.6 °C -11.9 °C 34361.1 hPa WNW 15.6 km/h 15.6 km/h 68 % 0 mm 339.0 W/m2 CLR
08:50 -8.3 °C -11.8 °C 34361.1 hPa NW 23.3 km/h 23.3 km/h 66 % 0 mm 353.0 W/m2 CLR
08:55 -8.1 °C -11.8 °C 34361.1 hPa West 20.8 km/h 20.8 km/h 65 % 0 mm 134.0 W/m2 CLR
09:00 -8 °C -11.9 °C 34361.1 hPa West 23.8 km/h 23.8 km/h 63 % 0 mm 355.0 W/m2 CLR
09:05 -7.9 °C -12 °C 34361.1 hPa WNW 20.9 km/h 20.9 km/h 62 % 0 mm 285.0 W/m2 CLR
09:10 -7.8 °C -11.9 °C 34361.1 hPa NW 15 km/h 15 km/h 62 % 0 mm 380.0 W/m2 CLR
09:15 -7.7 °C -12 °C 34361.1 hPa WNW 17.9 km/h 17.9 km/h 61 % 0 mm 394.0 W/m2 CLR
09:20 -7.6 °C -11.8 °C 34361.1 hPa NW 20.9 km/h 20.9 km/h 61 % 0 mm 406.0 W/m2 CLR
09:25 -7.5 °C -11.9 °C 34361.1 hPa WNW 20.9 km/h 20.9 km/h 60 % 0 mm 424.0 W/m2 CLR
09:30 -7.4 °C -11.9 °C 34361.1 hPa West 15 km/h 15 km/h 60 % 0 mm 443.0 W/m2 CLR
09:35 -7.4 °C -11.9 °C 34361.1 hPa WNW 17.9 km/h 17.9 km/h 59 % 0 mm 475.0 W/m2 CLR
09:41 -7.3 °C -11.8 °C 34361.1 hPa West 17.9 km/h 17.9 km/h 59 % 0 mm 359.0 W/m2 CLR
09:46 -7.3 °C -11.9 °C 34361.1 hPa West 17.9 km/h 17.9 km/h 58 % 0 mm 181.0 W/m2 CLR
09:51 -7.2 °C -11.8 °C 34361.1 hPa WNW 3.1 km/h   59 % 0 mm 531.0 W/m2 CLR
09:56 -7 °C -11.7 °C 34361.1 hPa SW 20.9 km/h 20.9 km/h 58 % 0 mm 584.0 W/m2 CLR
10:01 -6.9 °C -11.8 °C 34371.3 hPa West 17.9 km/h 17.9 km/h 57 % 0 mm 541.0 W/m2 CLR
10:06 -7.1 °C -12.1 °C 34371.3 hPa WSW 12.9 km/h 12.9 km/h 56 % 0 mm 606.0 W/m2 CLR
10:11 -7.1 °C -11.6 °C 34371.3 hPa Calm   3.9 km/h 59 % 0 mm 696.0 W/m2 CLR
10:16 -7.1 °C -11.9 °C 34371.3 hPa NNW 10.3 km/h 10.3 km/h 57 % 0 mm 165.0 W/m2 CLR
10:21 -6.9 °C -11.9 °C 34371.3 hPa NW 17.9 km/h 17.9 km/h 56 % 0 mm 612.0 W/m2 CLR
10:26 -6.8 °C -11.8 °C 34371.3 hPa NNW 10.3 km/h 10.3 km/h 56 % 0 mm 633.0 W/m2 CLR
10:31 -6.6 °C -12 °C 34371.3 hPa North 9 km/h 9 km/h 54 % 0 mm 719.0 W/m2 CLR
10:36 -6.5 °C -11.7 °C 34371.3 hPa WNW 15.6 km/h 15.6 km/h 55 % 0 mm 793.0 W/m2 CLR
10:41 -6.7 °C -12.2 °C 34371.3 hPa WNW 26.9 km/h 26.9 km/h 53 % 0 mm 272.0 W/m2 CLR
10:46 -6.7 °C -12 °C 34371.3 hPa North 10.3 km/h 10.3 km/h 54 % 0 mm 851.0 W/m2 CLR
10:51 -6.5 °C -11.8 °C 34371.3 hPa NNW 17.9 km/h 17.9 km/h 54 % 0 mm 877.0 W/m2 CLR
10:56 -6.5 °C -11.8 °C 34371.3 hPa North 23.8 km/h 23.8 km/h 54 % 0 mm 209.0 W/m2 CLR
11:01 -6.5 °C -11.8 °C 34384.8 hPa North 29.8 km/h 29.8 km/h 54 % 0 mm 858.0 W/m2 CLR
11:06 -6.5 °C -11.8 °C 34384.8 hPa West 9 km/h 9 km/h 54 % 0 mm 283.0 W/m2 CLR
11:11 -6.5 °C -11.7 °C 34384.8 hPa Calm     55 % 0 mm 258.0 W/m2 CLR
11:16 -6.3 °C -11.6 °C 34384.8 hPa WNW 20.8 km/h 20.8 km/h 55 % 0 mm 237.0 W/m2 CLR
11:21 -6.6 °C -11.9 °C 34384.8 hPa NNW 18.2 km/h 18.2 km/h 54 % 0 mm 223.0 W/m2 CLR
11:26 -6.7 °C -11.8 °C 34384.8 hPa NNW 20.9 km/h 20.9 km/h 55 % 0 mm 332.0 W/m2 CLR
11:31 -6.5 °C -11.8 °C 34384.8 hPa WNW 28.5 km/h 28.5 km/h 54 % 0 mm 974.0 W/m2 CLR
11:36 -6.4 °C -11.9 °C 34395 hPa WNW 15 km/h 15 km/h 53 % 0 mm 809.0 W/m2 CLR
11:41 -6.3 °C -11.9 °C 34395 hPa WNW 26.9 km/h 26.9 km/h 52 % 0 mm 643.0 W/m2 CLR
11:46 -6.2 °C -11.8 °C 34384.8 hPa North 23.8 km/h 23.8 km/h 52 % 0 mm 919.0 W/m2 CLR
11:51 -6.2 °C -11.6 °C 34395 hPa NNW 11.9 km/h 11.9 km/h 54 % 0 mm 1020.0 W/m2 CLR
11:56 -6 °C -11.5 °C 34384.8 hPa North 18.2 km/h 18.2 km/h 53 % 0 mm 933.0 W/m2 CLR
12:01 -6 °C -11.9 °C 34384.8 hPa NNE 15 km/h 15 km/h 51 % 0 mm 517.0 W/m2 CLR
12:06 -6.1 °C -11.8 °C 34384.8 hPa North 20.9 km/h 20.9 km/h 52 % 0 mm 185.0 W/m2 CLR
12:11 -6.1 °C -11.9 °C 34384.8 hPa North 15 km/h 15 km/h 51 % 0 mm 1009.0 W/m2 CLR
12:16 -6.1 °C -11.9 °C 34384.8 hPa NW 15 km/h 15 km/h 51 % 0 mm 1055.0 W/m2 CLR
12:21 -5.9 °C -11.8 °C 34384.8 hPa NE 9 km/h 9 km/h 51 % 0 mm 1120.0 W/m2 CLR
12:26 -5.8 °C -12 °C 34384.8 hPa NNW 15 km/h 15 km/h 49 % 0 mm 420.0 W/m2 CLR
12:31 -5.7 °C -11.9 °C 34384.8 hPa NNW 29.8 km/h 29.8 km/h 49 % 0 mm 872.0 W/m2 CLR
12:36 -5.9 °C -11.9 °C 34384.8 hPa NNW 20.9 km/h 20.9 km/h 50 % 0 mm 162.0 W/m2 CLR
12:41 -6.1 °C -12.1 °C 34384.8 hPa Calm     50 % 0 mm 121.0 W/m2 CLR
12:46 -6.3 °C -11.8 °C 34395 hPa ENE 18.2 km/h 18.2 km/h 53 % 0 mm 155.0 W/m2 CLR
12:51 -6.6 °C -11.7 °C 34384.8 hPa ENE 11.9 km/h 11.9 km/h 56 % 0 mm 162.0 W/m2 CLR
12:52 -6.7 °C -11.6 °C 34384.8 hPa ENE 18.2 km/h 18.2 km/h 57 % 0 mm 169.0 W/m2 CLR
12:57 -7.1 °C -11.6 °C 34384.8 hPa ENE 15 km/h 15 km/h 59 % 0 mm 949.0 W/m2 CLR
13:02 -6.8 °C -11.6 °C 34384.8 hPa NW 15 km/h 15 km/h 58 % 0 mm 923.0 W/m2 CLR
13:07 -6.7 °C -11.3 °C 34384.8 hPa ENE 20.9 km/h 20.9 km/h 59 % 0 mm 919.0 W/m2 CLR
13:12 -6.5 °C -11.3 °C 34384.8 hPa ENE 10.3 km/h 10.3 km/h 58 % 0 mm 923.0 W/m2 CLR
13:17 -6.3 °C -11.6 °C 34371.3 hPa Calm     55 % 0 mm 930.0 W/m2 CLR
13:22 -6.1 °C -12.1 °C 34371.3 hPa South 9 km/h 9 km/h 50 % 0 mm 942.0 W/m2 CLR
13:27 -5.9 °C -12.3 °C 34384.8 hPa SSE 3.1 km/h   48 % 0 mm 977.0 W/m2 CLR
13:32 -5.6 °C -11.8 °C 34384.8 hPa Calm     49 % 0 mm 1037.0 W/m2 CLR
13:37 -5.2 °C -12.1 °C 34371.3 hPa NE 9 km/h 9 km/h 46 % 0 mm 1093.0 W/m2 CLR
13:42 -5.1 °C -11.8 °C 34371.3 hPa ENE 12.9 km/h 12.9 km/h 46 % 0 mm 388.0 W/m2 CLR
13:47 -5.1 °C -12.1 °C 34371.3 hPa Calm     45 % 0 mm 246.0 W/m2 CLR
13:52 -5.2 °C -11.9 °C 34384.8 hPa ENE 11.9 km/h 11.9 km/h 46 % 0 mm 313.0 W/m2 CLR
13:57 -5.3 °C -12.1 °C 34371.3 hPa ENE 15.6 km/h 15.6 km/h 46 % 0 mm 294.0 W/m2 CLR
14:02 -5.4 °C -12.1 °C 34371.3 hPa NE 11.9 km/h   46 % 0 mm 294.0 W/m2 CLR
14:07 -5.4 °C -12 °C 34371.3 hPa Calm     47 % 0 mm 336.0 W/m2 CLR
14:12 -5.2 °C -12.1 °C 34371.3 hPa ENE 6 km/h 6 km/h 46 % 0 mm 260.0 W/m2 CLR
14:17 -5.3 °C -12.3 °C 34361.1 hPa ENE 11.9 km/h 11.9 km/h 45 % 0 mm 1116.0 W/m2 CLR
14:22 -5.1 °C -12.3 °C 34371.3 hPa ENE 9 km/h 9 km/h 44 % 0 mm 1169.0 W/m2 CLR
14:27 -5.2 °C -12.3 °C 34371.3 hPa Calm     44 % 0 mm 323.0 W/m2 CLR
14:32 -5.1 °C -12.2 °C 34371.3 hPa Calm     44 % 0 mm 1206.0 W/m2 CLR
14:37 -4.9 °C -12.1 °C 34371.3 hPa ENE 17.9 km/h 17.9 km/h 44 % 0 mm 1178.0 W/m2 CLR
14:39 -4.9 °C -12.3 °C 34371.3 hPa NE 3.1 km/h   43 % 0 mm 490.0 W/m2 CLR
14:44 -4.8 °C -12.2 °C 34371.3 hPa Calm     43 % 0 mm 817.0 W/m2 CLR
14:49 -4.8 °C -12.4 °C 34371.3 hPa ENE 2.6 km/h 2.6 km/h 42 % 0 mm 239.0 W/m2 CLR
14:54 -4.9 °C -12.3 °C 34371.3 hPa NNW 15.6 km/h 15.6 km/h 43 % 0 mm 267.0 W/m2 CLR
14:59 -5.1 °C -12.4 °C 34371.3 hPa NW 9 km/h 9 km/h 43 % 0 mm 316.0 W/m2 CLR
15:04 -4.9 °C -12.5 °C 34371.3 hPa Calm     42 % 0 mm 1111.0 W/m2 CLR
15:09 -4.6 °C -12 °C 34361.1 hPa Calm     43 % 0 mm 1046.0 W/m2 CLR
15:14 -4.4 °C -12.4 °C 34371.3 hPa ENE 9 km/h 9 km/h 40 % 0 mm 288.0 W/m2 CLR
15:19 -4.6 °C -12.4 °C 34371.3 hPa NE 20.9 km/h 20.9 km/h 41 % 0 mm 229.0 W/m2 CLR
15:24 -4.8 °C -12.4 °C 34371.3 hPa Calm     42 % 0 mm 179.0 W/m2 CLR
15:29 -4.9 °C -12.4 °C 34371.3 hPa Calm     42 % 0 mm 230.0 W/m2 CLR
15:34 -4.9 °C -12.7 °C 34361.1 hPa Calm     41 % 0 mm 944.0 W/m2 CLR
15:39 -4.7 °C -12.1 °C 34371.3 hPa East 23.8 km/h 23.8 km/h 43 % 0 mm 865.0 W/m2 CLR
15:44 -4.6 °C -12.3 °C 34371.3 hPa East 9 km/h   41 % 0 mm 860.0 W/m2 CLR
15:49 -4.4 °C -12.4 °C 34371.3 hPa NE 17.9 km/h 17.9 km/h 40 % 0 mm 874.0 W/m2 CLR
15:54 -4.3 °C -12.3 °C 34371.3 hPa NE 11.9 km/h 11.9 km/h 40 % 0 mm 946.0 W/m2 CLR
15:59 -4.3 °C -12.3 °C 34361.1 hPa Calm     40 % 0 mm 946.0 W/m2 CLR
16:04 -4.3 °C -12.5 °C 34361.1 hPa Calm     39 % 0 mm 1048.0 W/m2 CLR
16:09 -4.4 °C -12.7 °C 34361.1 hPa ENE 10.3 km/h 10.3 km/h 39 % 0 mm 302.0 W/m2 CLR
16:14 -4.5 °C -12.7 °C 34361.1 hPa ENE 20.8 km/h 20.8 km/h 39 % 0 mm 385.0 W/m2 CLR
16:19 -4.7 °C -12.9 °C 34361.1 hPa SE 11.9 km/h 12.4 km/h 39 % 0 mm 251.0 W/m2 CLR
16:25 -5.2 °C -11.6 °C 34361.1 hPa SE 23.8 km/h 23.8 km/h 48 % 0 mm 255.0 W/m2 CLR
16:30 -5.5 °C -11.6 °C 34361.1 hPa SSE 26.9 km/h 26.9 km/h 50 % 0 mm 181.0 W/m2 CLR
16:35 -5.6 °C -11.6 °C 34361.1 hPa SE 29.8 km/h 29.8 km/h 50 % 0 mm 193.0 W/m2 CLR
16:40 -5.6 °C -11.6 °C 34361.1 hPa SE 26.9 km/h 26.9 km/h 50 % 0 mm 178.0 W/m2 CLR
16:45 -5.6 °C -11.6 °C 34361.1 hPa SE 47.6 km/h 47.6 km/h 50 % 0 mm 158.0 W/m2 CLR
16:50 -5.6 °C -11.6 °C 34361.1 hPa South 32.8 km/h 32.8 km/h 50 % 0 mm 258.0 W/m2 CLR
16:55 -5.5 °C -11.9 °C 34361.1 hPa South 23.8 km/h 25.6 km/h 48 % 0 mm 257.0 W/m2 CLR
17:00 -5.6 °C -12 °C 34361.1 hPa South 29.8 km/h 29.8 km/h 48 % 0 mm 803.0 W/m2 CLR
17:05 -5.7 °C -12.1 °C 34361.1 hPa SSE 29.8 km/h 29.8 km/h 48 % 0 mm 162.0 W/m2 CLR
17:10 -5.7 °C -12.3 °C 34361.1 hPa South 26.9 km/h 26.9 km/h 47 % 0 mm 200.0 W/m2 CLR
17:15 -5.7 °C -12.1 °C 34361.1 hPa South 23.8 km/h 23.8 km/h 48 % 0 mm 160.0 W/m2 CLR
17:20 -5.7 °C -12.1 °C 34361.1 hPa SSW 23.8 km/h 23.8 km/h 48 % 0 mm 160.0 W/m2 CLR
17:25 -5.7 °C -12.1 °C 34361.1 hPa South 20.8 km/h 20.8 km/h 48 % 0 mm 192.0 W/m2 CLR
17:30 -5.7 °C -12.1 °C 34361.1 hPa South 26.9 km/h 26.9 km/h 48 % 0 mm 262.0 W/m2 CLR
17:35 -5.6 °C -11.8 °C 34361.1 hPa SSW 20.9 km/h 23 km/h 49 % 0 mm 246.0 W/m2 CLR
17:40 -5.6 °C -11.8 °C 34361.1 hPa South 23.8 km/h 23.8 km/h 49 % 0 mm 299.0 W/m2 CLR
17:45 -5.5 °C -11.8 °C 34361.1 hPa South 20.9 km/h 20.9 km/h 49 % 0 mm 318.0 W/m2 CLR
17:50 -5.5 °C -11.9 °C 34361.1 hPa South 26.9 km/h 26.9 km/h 48 % 0 mm 262.0 W/m2 CLR
17:55 -5.4 °C -11.8 °C 34361.1 hPa SSW 17.9 km/h 17.9 km/h 48 % 0 mm 190.0 W/m2 CLR
18:00 -5.4 °C -12 °C 34361.1 hPa South 26.9 km/h 26.9 km/h 47 % 0 mm 279.0 W/m2 CLR
18:05 -5.4 °C -12 °C 34361.1 hPa SSE 26.9 km/h 26.9 km/h 47 % 0 mm 283.0 W/m2 CLR
18:10 -5.4 °C -12 °C 34361.1 hPa South 20.8 km/h 20.8 km/h 47 % 0 mm 141.0 W/m2 CLR
18:15 -5.4 °C -12 °C 34361.1 hPa South 15.6 km/h 15.6 km/h 47 % 0 mm 156.0 W/m2 CLR
18:20 -5.4 °C -12 °C 34371.3 hPa SSW 17.9 km/h 17.9 km/h 47 % 0 mm 195.0 W/m2 CLR
18:25 -5.3 °C -11.9 °C 34361.1 hPa South 17.9 km/h 17.9 km/h 47 % 0 mm 227.0 W/m2 CLR
18:30 -5.2 °C -12 °C 34371.3 hPa SSW 17.9 km/h 17.9 km/h 46 % 0 mm 209.0 W/m2 CLR
18:35 -5.2 °C -11.9 °C 34371.3 hPa WSW 12.9 km/h 12.9 km/h 46 % 0 mm 169.0 W/m2 CLR
18:40 -5.2 °C -11.9 °C 34371.3 hPa WSW 9 km/h 9 km/h 46 % 0 mm 207.0 W/m2 CLR
18:45 -5.2 °C -11.9 °C 34371.3 hPa South 11.9 km/h 11.9 km/h 46 % 0 mm 114.0 W/m2 CLR
18:50 -5.2 °C -12.1 °C 34371.3 hPa Calm     45 % 0 mm 132.0 W/m2 CLR
18:55 -5.1 °C -12.1 °C 34371.3 hPa West 6 km/h   45 % 0 mm 223.0 W/m2 CLR
19:00 -4.9 °C -12.1 °C 34371.3 hPa Calm     44 % 0 mm 482.0 W/m2 CLR
19:05 -4.5 °C -12.1 °C 34371.3 hPa Calm     42 % 0 mm 438.0 W/m2 CLR
19:10 -4.3 °C -11.4 °C 34371.3 hPa NNW 26.9 km/h 26.9 km/h 45 % 0 mm 399.0 W/m2 CLR
19:15 -4.5 °C -11.5 °C 34371.3 hPa NNE 17.9 km/h 17.9 km/h 45 % 0 mm 353.0 W/m2 CLR
19:21 -4.5 °C -11.3 °C 34371.3 hPa NW 17.9 km/h 17.9 km/h 46 % 0 mm 346.0 W/m2 CLR
19:26 -4.7 °C -11.2 °C 34371.3 hPa NNW 20.9 km/h 20.9 km/h 48 % 0 mm 104.0 W/m2 CLR
19:31 -5.1 °C -11.3 °C 34371.3 hPa NNW 11.9 km/h 11.9 km/h 49 % 0 mm 72.0 W/m2 CLR
19:36 -5.3 °C -11.4 °C 34371.3 hPa NNW 10.3 km/h 10.3 km/h 50 % 0 mm 47.0 W/m2 FEW
19:41 -5.4 °C -11.5 °C 34384.8 hPa Calm     50 % 0 mm 54.0 W/m2 SCT
19:46 -5.5 °C -11.7 °C 34384.8 hPa South 20.8 km/h 20.8 km/h 49 % 0 mm 60.0 W/m2 SCT
19:51 -5.7 °C -11.6 °C 34384.8 hPa SSW 18.2 km/h 18.2 km/h 51 % 0 mm 47.0 W/m2 SCT
19:56 -5.8 °C -11.5 °C 34395 hPa South 23.8 km/h 23.8 km/h 52 % 0 mm 35.0 W/m2 SCT
20:01 -5.9 °C -11.4 °C 34395 hPa SSW 20.9 km/h 20.9 km/h 53 % 0 mm 25.0 W/m2 BKN
20:06 -5.9 °C -11.4 °C 34405.1 hPa SW 23.8 km/h 23.8 km/h 53 % 0 mm 19.0 W/m2 BKN
20:11 -5.9 °C -11.6 °C 34405.1 hPa WSW 23.8 km/h 23.8 km/h 52 % 0 mm 30.0 W/m2 BKN
20:16 -6.2 °C -10.9 °C 34418.7 hPa NW 20.9 km/h 20.9 km/h 58 % 0 mm 30.0 W/m2 BKN
20:21 -6.4 °C -10.8 °C 34418.7 hPa NW 9 km/h 9 km/h 61 % 0 mm 37.0 W/m2 BKN
20:26 -6.6 °C -10.7 °C 34418.7 hPa NNW 9 km/h 9 km/h 62 % 0 mm 49.0 W/m2 SCT
20:31 -6.6 °C -10.7 °C 34418.7 hPa Calm     62 % 0 mm 49.0 W/m2 SCT
20:36 -6.6 °C -10.6 °C 34418.7 hPa North 17.9 km/h 17.9 km/h 63 % 0 mm 33.0 W/m2 BKN
20:41 -6.7 °C -10.4 °C 34428.8 hPa ENE 5.1 km/h 8.2 km/h 65 % 0 mm 16.0 W/m2 BKN
20:47 -6.9 °C -10.7 °C 34428.8 hPa NE 9 km/h   65 % 0 mm 11.0 W/m2 BKN
20:52 -7.1 °C -10.7 °C 34442.4 hPa Calm     66 % 0 mm 9.0 W/m2 BKN
20:57 -7.3 °C -10.6 °C 34442.4 hPa Calm     68 % 0 mm 5.0 W/m2 BKN
21:02 -7.4 °C -10.7 °C 34442.4 hPa Calm     68 % 0 mm 5.0 W/m2 OVC
21:07 -7.5 °C -10.7 °C 34452.6 hPa Calm     69 % 0 mm 0.0 W/m2 OVC
21:12 -7.6 °C -10.7 °C 34452.6 hPa Calm     70 % 0 mm 0.0 W/m2 OVC
21:17 -7.6 °C -10.4 °C 34452.6 hPa Calm     72 % 0 mm 0.0 W/m2 OVC
21:22 -7.7 °C -10.5 °C 34452.6 hPa Calm     72 % 0 mm 0.0 W/m2 CLR
21:27 -7.8 °C -10.4 °C 34452.6 hPa Calm     74 % 0 mm 0.0 W/m2 CLR
21:32 -7.9 °C -10.5 °C 34462.7 hPa Calm     74 % 0 mm 0.0 W/m2 CLR
21:37 -7.9 °C -10.5 °C 34462.7 hPa Calm     74 % 0 mm 0.0 W/m2 CLR
21:42 -7.9 °C -10.4 °C 34462.7 hPa Calm     75 % 0 mm 0.0 W/m2 CLR
21:54 -7.9 °C -10.4 °C 34476.3 hPa Calm     75 % 0 mm 0.0 W/m2 CLR
21:59 -7.9 °C -10.4 °C 34476.3 hPa Calm     75 % 0 mm 0.0 W/m2 CLR
22:04 -7.9 °C -10.3 °C 34486.4 hPa SW 23.8 km/h 23.8 km/h 76 % 7.62 mm 0.0 W/m2 RA
22:09 -8.1 °C -10.4 °C 34476.3 hPa Calm     76 % 7.62 mm 0.0 W/m2
22:14 -8.1 °C -10.4 °C 34476.3 hPa Calm     77 % 12.7 mm 0.0 W/m2 RA
22:19 -8.1 °C -10.5 °C 34476.3 hPa Calm     76 % 12.7 mm 0.0 W/m2 CLR
22:24 -8.1 °C -10.3 °C 34476.3 hPa Calm     78 % 12.7 mm 0.0 W/m2 CLR
22:29 -8.2 °C -10.1 °C 34476.3 hPa ENE 15.6 km/h 15.6 km/h 80 % 12.7 mm 0.0 W/m2 CLR
22:35 -8.3 °C -10.3 °C 34476.3 hPa Calm     80 % 12.7 mm 0.0 W/m2 CLR
22:40 -8.4 °C -10.2 °C 34476.3 hPa Calm     81 % 20.32 mm 0.0 W/m2 RA
22:45 -8.5 °C -10.1 °C 34486.4 hPa ENE 17.9 km/h 17.9 km/h 83 % 20.32 mm 0.0 W/m2 CLR
22:50 -8.7 °C -10.2 °C 34486.4 hPa WSW 11.9 km/h   84 % 20.32 mm 0.0 W/m2 CLR
22:55 -8.7 °C -10.2 °C 34486.4 hPa North 17.9 km/h 17.9 km/h 84 % 20.32 mm 0.0 W/m2 CLR
23:00 -8.8 °C -10.2 °C 34486.4 hPa SSW 11.9 km/h 11.9 km/h 85 % 20.32 mm 0.0 W/m2 CLR
23:05 -8.9 °C -10.3 °C 34486.4 hPa Calm     85 % 12.7 mm 0.0 W/m2 CLR
23:10 -9 °C -10.4 °C 34496.6 hPa SSW 11.9 km/h 11.9 km/h 85 % 12.7 mm 0.0 W/m2 CLR
23:15 -9.1 °C -10.4 °C 34496.6 hPa Calm     85 % 7.62 mm 0.0 W/m2 CLR
23:20 -9.1 °C -10.5 °C 34496.6 hPa Calm     85 % 7.62 mm 0.0 W/m2 CLR
23:25 -9.2 °C -10.6 °C 34496.6 hPa Calm     85 % 7.62 mm 0.0 W/m2 CLR
23:30 -9.2 °C -10.7 °C 34510.1 hPa Calm     84 % 7.62 mm 0.0 W/m2 CLR
23:35 -9.2 °C -10.7 °C 34510.1 hPa Calm     84 % 7.62 mm 0.0 W/m2 CLR
23:40 -9.2 °C -10.8 °C 34510.1 hPa Calm     83 % 0 mm 0.0 W/m2 CLR
23:45 -9.2 °C -10.9 °C 34510.1 hPa Calm     81 % 0 mm 0.0 W/m2 CLR
23:50 -9 °C -10.9 °C 34510.1 hPa Calm     80 % 0 mm 0.0 W/m2 CLR
23:55 -9 °C -10.8 °C 34510.1 hPa Calm     81 % 0 mm 0.0 W/m2 CLR
Lo Temps de Massalio
Compliments of Weather Underground - 1.25 mb